Location: Heiligenberg
(48.5381°N, 7.3897°E)
Time: 22:30:58
(UTC+00:00)

Cosmos 1553 Rocket - Pass Details

Date: 26 May 2022
Orbit: 942 x 1007 km, 82.9° (Epoch: 03 July)

Event Time Altitude Azimuth Distance (km) Brightness Sun altitude
Exits shadow 00:03:15 34° 206° (SSW) 1,520 4.5 -19.9°
Maximum altitude 00:06:02 70° 281° (WNW) 1,017 4.0 -19.8°
Drops below altitude 10° 00:12:15 10° 5° (N) 2,722 7.6 -19.7°
Sets 00:14:48 0° 8° (N) 3,683 8.7 -19.6°
